Time,TemperatureF,DewpointF,PressureIn,WindDirection,WindDirectionDegrees,WindSpeedMPH,WindSpeedGustMPH,Humidity,HourlyPrecipIn,Conditions,Clouds,dailyrainin,SoftwareType,DateUTC
2012-11-16 00:08:00,56.3,-99.9,29.80,SSW,196,6.0,-999.0,0,-99.99,,,0.02,weatherlink.com 1.10,2012-11-15 11:08:00,
2012-11-16 00:23:00,56.1,-99.9,29.80,WSW,237,3.0,-999.0,0,-99.99,,,0.02,weatherlink.com 1.10,2012-11-15 11:23:00,
2012-11-16 00:38:00,55.8,-99.9,29.82,WSW,249,4.0,-999.0,0,-99.99,,,0.02,weatherlink.com 1.10,2012-11-15 11:38:00,
2012-11-16 00:53:00,55.8,-99.9,29.82,SSW,205,4.0,-999.0,0,-99.99,,,0.02,weatherlink.com 1.10,2012-11-15 11:53:00,
2012-11-16 01:08:00,55.5,-99.9,29.82,WSW,237,4.0,-999.0,0,-99.99,,,0.02,weatherlink.com 1.10,2012-11-15 12:08:00,
2012-11-16 01:23:00,55.1,-99.9,29.81,SSW,201,1.0,-999.0,0,-99.99,,,0.02,weatherlink.com 1.10,2012-11-15 12:23:00,
2012-11-16 01:38:00,54.6,-99.9,29.81,SSW,210,4.0,-999.0,0,-99.99,,,0.02,weatherlink.com 1.10,2012-11-15 12:38:00,
2012-11-16 01:53:00,54.2,-99.9,29.82,SSW,205,0.0,-999.0,0,-99.99,,,0.02,weatherlink.com 1.10,2012-11-15 12:53:00,
2012-11-16 02:08:00,53.8,-99.9,29.82,SSW,192,0.0,-999.0,0,-99.99,,,0.02,weatherlink.com 1.10,2012-11-15 13:08:00,
2012-11-16 02:23:00,53.4,-99.9,29.82,SSW,192,0.0,-999.0,0,-99.99,,,0.02,weatherlink.com 1.10,2012-11-15 13:23:00,
2012-11-16 02:38:00,53.2,-99.9,29.82,SSW,192,0.0,-999.0,0,-99.99,,,0.02,weatherlink.com 1.10,2012-11-15 13:38:00,
2012-11-16 02:53:00,52.9,-99.9,29.82,SSW,192,0.0,-999.0,0,-99.99,,,0.02,weatherlink.com 1.10,2012-11-15 13:53:00,
2012-11-16 03:09:00,52.7,-99.9,29.82,SSW,192,0.0,-999.0,0,-99.99,,,0.02,weatherlink.com 1.10,2012-11-15 14:09:00,
2012-11-16 03:23:00,52.5,-99.9,29.82,SSW,192,0.0,-999.0,0,-99.99,,,0.02,weatherlink.com 1.10,2012-11-15 14:23:00,
2012-11-16 03:39:00,52.6,-99.9,29.82,SSW,192,0.0,-999.0,0,-99.99,,,0.02,weatherlink.com 1.10,2012-11-15 14:39:00,
2012-11-16 03:54:00,53.2,-99.9,29.82,WSW,239,2.0,-999.0,0,-99.99,,,0.02,weatherlink.com 1.10,2012-11-15 14:54:00,
2012-11-16 04:09:00,53.7,-99.9,29.83,WSW,242,4.0,-999.0,0,-99.99,,,0.02,weatherlink.com 1.10,2012-11-15 15:09:00,
2012-11-16 04:24:00,53.9,-99.9,29.83,SW,236,0.0,-999.0,0,-99.99,,,0.02,weatherlink.com 1.10,2012-11-15 15:24:00,
2012-11-16 04:39:00,53.8,-99.9,29.82,WSW,243,0.0,-999.0,0,-99.99,,,0.02,weatherlink.com 1.10,2012-11-15 15:39:00,
2012-11-16 04:54:00,53.5,-99.9,29.82,WSW,244,0.0,-999.0,0,-99.99,,,0.02,weatherlink.com 1.10,2012-11-15 15:54:00,
2012-11-16 05:09:00,53.5,-99.9,29.82,WSW,238,1.0,-999.0,0,-99.99,,,0.02,weatherlink.com 1.10,2012-11-15 16:09:00,
2012-11-16 05:24:00,53.5,-99.9,29.82,WSW,240,0.0,-999.0,0,-99.99,,,0.02,weatherlink.com 1.10,2012-11-15 16:24:00,
2012-11-16 05:39:00,53.4,-99.9,29.84,WSW,240,2.0,-999.0,0,-99.99,,,0.02,weatherlink.com 1.10,2012-11-15 16:39:00,
2012-11-16 05:54:00,53.6,-99.9,29.84,WSW,253,0.0,-999.0,0,-99.99,,,0.02,weatherlink.com 1.10,2012-11-15 16:54:00,
2012-11-16 06:09:00,53.9,-99.9,29.84,WSW,258,0.0,-999.0,0,-99.99,,,0.02,weatherlink.com 1.10,2012-11-15 17:09:00,
2012-11-16 06:24:00,53.7,-99.9,29.84,WSW,258,2.0,-999.0,0,-99.99,,,0.02,weatherlink.com 1.10,2012-11-15 17:24:00,
2012-11-16 06:39:00,53.3,-99.9,29.85,WSW,258,0.0,-999.0,0,-99.99,,,0.02,weatherlink.com 1.10,2012-11-15 17:39:00,
2012-11-16 06:54:00,54.9,-99.9,29.85,WSW,258,0.0,-999.0,0,-99.99,,,0.00,weatherlink.com 1.10,2012-11-15 17:54:00,
2012-11-16 07:09:00,56.1,-99.9,29.86,WSW,258,1.0,-999.0,0,-99.99,,,0.00,weatherlink.com 1.10,2012-11-15 18:09:00,
2012-11-16 07:24:00,57.0,-99.9,29.86,WSW,258,2.0,-999.0,0,-99.99,,,0.00,weatherlink.com 1.10,2012-11-15 18:24:00,
2012-11-16 07:39:00,58.1,-99.9,29.87,WSW,258,0.0,-999.0,0,-99.99,,,0.00,weatherlink.com 1.10,2012-11-15 18:39:00,
2012-11-16 07:54:00,60.0,-99.9,29.87,West,280,0.0,-999.0,0,-99.99,,,0.00,weatherlink.com 1.10,2012-11-15 18:54:00,
2012-11-16 08:09:00,60.6,-99.9,29.88,WSW,256,3.0,-999.0,0,-99.99,,,0.00,weatherlink.com 1.10,2012-11-15 19:09:00,
2012-11-16 08:24:00,60.4,-99.9,29.89,WNW,287,3.0,-999.0,0,-99.99,,,0.00,weatherlink.com 1.10,2012-11-15 19:24:00,
2012-11-16 08:39:00,59.8,-99.9,29.90,SW,232,6.0,-999.0,0,-99.99,,,0.00,weatherlink.com 1.10,2012-11-15 19:39:00,
2012-11-16 08:54:00,59.4,-99.9,29.90,SW,216,4.0,-999.0,0,-99.99,,,0.00,weatherlink.com 1.10,2012-11-15 19:54:00,
2012-11-16 09:09:00,61.1,-99.9,29.89,WSW,250,0.0,-999.0,0,-99.99,,,0.00,weatherlink.com 1.10,2012-11-15 20:09:00,
2012-11-16 09:24:00,64.1,-99.9,29.89,West,261,2.0,-999.0,0,-99.99,,,0.00,weatherlink.com 1.10,2012-11-15 20:24:00,
2012-11-16 09:39:00,66.2,-99.9,29.89,West,276,5.0,-999.0,0,-99.99,,,0.00,weatherlink.com 1.10,2012-11-15 20:39:00,
2012-11-16 09:54:00,67.5,31.0,29.88,South,170,3.0,-999.0,26,-99.99,,,0.00,weatherlink.com 1.10,2012-11-15 20:54:00,
2012-11-16 10:09:00,67.3,30.0,29.88,SSW,205,3.0,-999.0,25,-99.99,,,0.00,weatherlink.com 1.10,2012-11-15 21:09:00,
2012-11-16 10:24:00,66.0,39.0,29.89,SSW,197,0.0,-999.0,37,-99.99,,,0.00,weatherlink.com 1.10,2012-11-15 21:24:00,
2012-11-16 10:39:00,66.1,31.0,29.87,West,276,11.0,-999.0,27,-99.99,,,0.00,weatherlink.com 1.10,2012-11-15 21:39:00,
2012-11-16 10:54:00,67.2,41.0,29.88,WSW,241,0.0,-999.0,38,-99.99,,,0.00,weatherlink.com 1.10,2012-11-15 21:54:00,
2012-11-16 11:09:00,70.1,49.0,29.88,WSW,246,3.0,-999.0,48,-99.99,,,0.00,weatherlink.com 1.10,2012-11-15 22:09:00,
2012-11-16 11:24:00,70.6,46.0,29.88,West,269,4.0,-999.0,42,-99.99,,,0.00,weatherlink.com 1.10,2012-11-15 22:24:00,
2012-11-16 11:39:00,71.6,50.0,29.88,West,272,0.0,-999.0,47,-99.99,,,0.00,weatherlink.com 1.10,2012-11-15 22:39:00,
2012-11-16 11:54:00,72.9,54.0,29.88,SW,226,0.0,-999.0,52,-99.99,,,0.00,weatherlink.com 1.10,2012-11-15 22:54:00,
2012-11-16 12:09:00,70.7,53.0,29.88,WNW,298,2.0,-999.0,53,-99.99,,,0.00,weatherlink.com 1.10,2012-11-15 23:09:00,
2012-11-16 12:24:00,69.6,52.0,29.88,SW,221,0.0,-999.0,53,-99.99,,,0.00,weatherlink.com 1.10,2012-11-15 23:24:00,
2012-11-16 12:39:00,69.4,51.0,29.87,SE,146,9.0,-999.0,53,-99.99,,,0.00,weatherlink.com 1.10,2012-11-15 23:39:00,
2012-11-16 13:09:00,70.4,52.0,29.87,West,260,2.0,-999.0,53,-99.99,,,0.00,weatherlink.com 1.10,2012-11-16 00:09:00,
2012-11-16 13:24:00,70.3,52.0,29.87,West,275,3.0,-999.0,53,-99.99,,,0.00,weatherlink.com 1.10,2012-11-16 00:24:00,
2012-11-16 13:39:00,70.3,52.0,29.87,WSW,251,0.0,-999.0,53,-99.99,,,0.00,weatherlink.com 1.10,2012-11-16 00:39:00,
2012-11-16 13:54:00,69.0,51.0,29.87,SW,224,6.0,-999.0,53,-99.99,,,0.00,weatherlink.com 1.10,2012-11-16 00:54:00,
2012-11-16 14:09:00,68.0,47.0,29.87,WNW,302,3.0,-999.0,48,-99.99,,,0.00,weatherlink.com 1.10,2012-11-16 01:09:00,
2012-11-16 14:24:00,69.7,50.0,29.87,South,185,5.0,-999.0,50,-99.99,,,0.00,weatherlink.com 1.10,2012-11-16 01:24:00,
2012-11-16 14:39:00,71.4,53.0,29.87,WSW,239,1.0,-999.0,53,-99.99,,,0.00,weatherlink.com 1.10,2012-11-16 01:39:00,
2012-11-16 14:54:00,72.9,55.0,29.86,SW,236,7.0,-999.0,53,-99.99,,,0.00,weatherlink.com 1.10,2012-11-16 01:54:00,
2012-11-16 15:09:00,71.9,54.0,29.86,SW,230,2.0,-999.0,53,-99.99,,,0.00,weatherlink.com 1.10,2012-11-16 02:09:00,
2012-11-16 15:24:00,70.6,53.0,29.86,South,189,0.0,-999.0,54,-99.99,,,0.00,weatherlink.com 1.10,2012-11-16 02:24:00,
2012-11-16 15:39:00,70.8,53.0,29.86,South,188,0.0,-999.0,53,-99.99,,,0.00,weatherlink.com 1.10,2012-11-16 02:39:00,
2012-11-16 15:54:00,71.2,53.0,29.86,WSW,251,2.0,-999.0,53,-99.99,,,0.00,weatherlink.com 1.10,2012-11-16 02:54:00,
2012-11-16 16:09:00,70.4,53.0,29.86,WSW,249,0.0,-999.0,54,-99.99,,,0.00,weatherlink.com 1.10,2012-11-16 03:09:00,
2012-11-16 16:24:00,70.4,52.0,29.85,West,280,7.0,-999.0,53,-99.99,,,0.00,weatherlink.com 1.10,2012-11-16 03:24:00,
2012-11-16 16:39:00,70.8,53.0,29.85,West,261,6.0,-999.0,53,-99.99,,,0.00,weatherlink.com 1.10,2012-11-16 03:39:00,
2012-11-16 16:54:00,72.1,53.0,29.84,WSW,255,0.0,-999.0,52,-99.99,,,0.00,weatherlink.com 1.10,2012-11-16 03:54:00,
2012-11-16 17:09:00,71.5,53.0,29.84,SSW,202,0.0,-999.0,52,-99.99,,,0.00,weatherlink.com 1.10,2012-11-16 04:09:00,
2012-11-16 17:24:00,70.8,52.0,29.84,South,170,0.0,-999.0,52,-99.99,,,0.00,weatherlink.com 1.10,2012-11-16 04:24:00,
2012-11-16 17:39:00,70.1,52.0,29.84,West,273,3.0,-999.0,53,-99.99,,,0.00,weatherlink.com 1.10,2012-11-16 04:39:00,
2012-11-16 17:54:00,68.8,51.0,29.84,SSW,205,0.0,-999.0,53,-99.99,,,0.00,weatherlink.com 1.10,2012-11-16 04:54:00,
2012-11-16 18:24:00,66.4,49.0,29.86,SW,232,1.0,-999.0,54,-99.99,,,0.00,weatherlink.com 1.10,2012-11-16 05:24:00,
2012-11-16 18:39:00,65.3,48.0,29.87,West,269,0.0,-999.0,54,-99.99,,,0.00,weatherlink.com 1.10,2012-11-16 05:39:00,
2012-11-16 18:54:00,64.6,47.0,29.87,WSW,239,3.0,-999.0,53,-99.99,,,0.00,weatherlink.com 1.10,2012-11-16 05:54:00,
2012-11-16 19:09:00,63.8,45.0,29.87,SW,224,1.0,-999.0,51,-99.99,,,0.00,weatherlink.com 1.10,2012-11-16 06:09:00,
2012-11-16 19:24:00,63.2,43.0,29.88,WSW,238,0.0,-999.0,48,-99.99,,,0.00,weatherlink.com 1.10,2012-11-16 06:24:00,
2012-11-16 19:39:00,62.1,40.0,29.88,WSW,244,3.0,-999.0,45,-99.99,,,0.00,weatherlink.com 1.10,2012-11-16 06:39:00,
2012-11-16 19:54:00,61.0,34.0,29.88,SSW,201,2.0,-999.0,37,-99.99,,,0.00,weatherlink.com 1.10,2012-11-16 06:54:00,
2012-11-16 20:09:00,59.9,27.0,29.90,SSW,206,0.0,-999.0,29,-99.99,,,0.00,weatherlink.com 1.10,2012-11-16 07:09:00,
2012-11-16 20:24:00,58.9,16.0,29.89,SW,215,0.0,-999.0,19,-99.99,,,0.00,weatherlink.com 1.10,2012-11-16 07:24:00,
2012-11-16 20:39:00,58.1,5.0,29.90,SW,215,0.0,-999.0,12,-99.99,,,0.00,weatherlink.com 1.10,2012-11-16 07:39:00,
2012-11-16 21:03:00,57.0,-31.0,29.89,SW,215,0.0,-999.0,2,-99.99,,,0.00,weatherlink.com 1.10,2012-11-16 08:03:00,
2012-11-16 21:09:00,56.8,-44.0,29.89,SW,215,0.0,-999.0,1,-99.99,,,0.00,weatherlink.com 1.10,2012-11-16 08:09:00,
2012-11-16 21:24:00,56.4,-99.9,29.90,SW,215,1.0,-999.0,0,-99.99,,,0.00,weatherlink.com 1.10,2012-11-16 08:24:00,
2012-11-16 21:39:00,56.1,-99.9,29.90,SW,215,0.0,-999.0,0,-99.99,,,0.00,weatherlink.com 1.10,2012-11-16 08:39:00,
2012-11-16 21:54:00,55.9,-99.9,29.91,SW,233,2.0,-999.0,0,-99.99,,,0.00,weatherlink.com 1.10,2012-11-16 08:54:00,
2012-11-16 22:09:00,55.6,-99.9,29.91,SW,234,0.0,-999.0,0,-99.99,,,0.00,weatherlink.com 1.10,2012-11-16 09:09:00,
2012-11-16 22:24:00,55.3,-99.9,29.91,SW,235,0.0,-999.0,0,-99.99,,,0.00,weatherlink.com 1.10,2012-11-16 09:24:00,
2012-11-16 22:39:00,54.9,-99.9,29.92,WSW,244,1.0,-999.0,0,-99.99,,,0.00,weatherlink.com 1.10,2012-11-16 09:39:00,
2012-11-16 22:54:00,54.6,-99.9,29.92,WSW,245,0.0,-999.0,0,-99.99,,,0.00,weatherlink.com 1.10,2012-11-16 09:54:00,
2012-11-16 23:09:00,54.4,-99.9,29.91,WSW,245,0.0,-999.0,0,-99.99,,,0.00,weatherlink.com 1.10,2012-11-16 10:09:00,
2012-11-16 23:24:00,54.2,-99.9,29.90,WSW,245,0.0,-999.0,0,-99.99,,,0.00,weatherlink.com 1.10,2012-11-16 10:24:00,
2012-11-16 23:39:00,54.0,-99.9,29.90,WSW,245,0.0,-999.0,0,-99.99,,,0.00,weatherlink.com 1.10,2012-11-16 10:39:00,
2012-11-16 23:54:00,54.1,-99.9,29.90,WSW,245,2.0,-999.0,0,-99.99,,,0.00,weatherlink.com 1.10,2012-11-16 10:54:00,